Rhinelander, WI

12:18 PM CDT on May 24, 2017 (GMT -0500)
Rhinelander-Oneida County

Weather History for KRHI - December, 2014

Change the Weather History Date:

Saturday, December 27, 2014

  Actual Average Record
Temperature  
Mean Temperature 18 °F 14 °F  
Max Temperature 30 °F 23 °F 48 °F (1936)
Min Temperature 6 °F 5 °F -34 °F (1924)
Degree Days  
Heating Degree Days 47 51  
Month to date heating degree days 1158 1286  
Since 1 July heating degree days 3679 3420  
Cooling Degree Days 0 0  
Month to date cooling degree days 0 0  
Year to date cooling degree days 148 261  
Moisture  
Dew Point 24 °F    
Average Humidity 89    
Maximum Humidity 100    
Minimum Humidity 78    
Precipitation  
Precipitation 0.65 in 0.04 in 0.87 in (1946)
Month to date precipitation 2.02 1.28  
Year to date precipitation 41.62 31.24  
Snow  
Snow 7.20 in - 7.60 in (1946)
Month to date snowfall 19.0  
Since 1 July snowfall 54.1  
Snow Depth 15.00 in    
Sea Level Pressure  
Sea Level Pressure 29.91 in    
Wind  
Wind Speed 7 mph (North)    
Max Wind Speed 17 mph    
Max Gust Speed 22 mph    
Visibility 4 miles    
Events Fog , Snow    
T = Trace of Precipitation, MM = Missing Value Source: NWS Daily Summary

Daily Weather History Graph

Daily Weather History Graph

Search for Another Location

Airport or City:

Trip Planner

Search our weather history database for the weather conditions in past years. The results will help you decide how hot, cold, wet, or windy it might be!

Date:

Astronomy

Dec. 27, 2014 Rise Set
Actual Time 7:37 AM CST 4:20 PM CST
Civil Twilight 7:03 AM CST 4:54 PM CST
Nautical Twilight 6:25 AM CST 5:32 PM CST
Astronomical Twilight 5:49 AM CST 6:08 PM CST
Moon 11:07 AM CST (12/27) 11:30 PM CST (12/27)
Length of Visible Light 9h 51m
Length of Day
8h 42m
Waxing Crescent, 38% of the Moon is Illuminated
Dec 27
Waxing Crescent
Dec 28
First Quarter
Jan 4
Full
Jan 13
Last Quarter
Jan 20
New

Hourly Weather History & Observations

Time (CST) Temp. Windchill Dew Point Humidity Pressure Visibility Wind Dir Wind Speed Gust Speed Precip Events Conditions
12:36 AM 28.9 °F 23.9 °F 27.0 °F 92% 29.97 in 0.8 mi NE 4.6 mph - 0.03 in Snow Light Snow
12:53 AM 28.9 °F 22.8 °F 28.0 °F 96% 30.03 in 0.8 mi NNE 5.8 mph - 0.04 in Snow Light Snow
1:43 AM 28.9 °F 22.8 °F 27.0 °F 92% 29.95 in 0.5 mi NE 5.8 mph - 0.05 in Fog , Snow Snow
1:53 AM 28.9 °F 25.2 °F 27.0 °F 92% 30.02 in 0.5 mi NE 3.5 mph - 0.07 in Fog , Snow Snow
2:37 AM 28.9 °F 22.8 °F 28.0 °F 96% 29.94 in 0.8 mi NNE 5.8 mph - 0.04 in Snow Light Snow
2:51 AM 28.4 °F 22.2 °F 26.6 °F 93% 29.94 in 1.0 mi NE 5.8 mph - 0.05 in Snow Light Snow
2:53 AM 28.9 °F 22.8 °F 27.0 °F 92% 30.00 in 1.0 mi NE 5.8 mph - 0.05 in Snow Light Snow
2:59 AM 28.9 °F 22.8 °F 27.0 °F 92% 29.93 in 0.8 mi NE 5.8 mph - 0.00 in Snow Light Snow
3:08 AM 28.9 °F 21.9 °F 27.0 °F 92% 29.93 in 1.0 mi NE 6.9 mph - 0.01 in Snow Light Snow
3:35 AM 28.9 °F 23.9 °F 27.0 °F 92% 29.93 in 1.5 mi ENE 4.6 mph - 0.02 in Snow Light Snow
3:53 AM 28.9 °F 22.8 °F 27.0 °F 92% 29.99 in 1.0 mi NE 5.8 mph - 0.03 in Snow Light Snow
4:53 AM 28.0 °F 22.8 °F 27.0 °F 96% 29.94 in 1.5 mi ENE 4.6 mph - 0.03 in Snow Light Snow
5:14 AM 28.0 °F 20.8 °F 27.0 °F 96% 29.88 in 0.8 mi ENE 6.9 mph - 0.02 in Snow Light Snow
5:37 AM 28.0 °F 21.7 °F 27.0 °F 96% 29.86 in 1.0 mi NE 5.8 mph - 0.04 in Snow Light Snow
5:53 AM 28.0 °F 20.8 °F 27.0 °F 96% 29.92 in 1.2 mi NE 6.9 mph - 0.04 in Snow Light Snow
6:13 AM 28.0 °F 20.8 °F 27.0 °F 96% 29.85 in 0.8 mi NNE 6.9 mph - 0.01 in Snow Light Snow
6:22 AM 28.0 °F 20.8 °F 27.0 °F 96% 29.85 in 1.2 mi NE 6.9 mph - 0.02 in Snow Light Snow
6:32 AM 28.0 °F 20.8 °F 27.0 °F 96% 29.85 in 1.5 mi NNE 6.9 mph - 0.02 in Snow Light Snow
6:45 AM 28.0 °F 20.8 °F 27.0 °F 96% 29.85 in 0.8 mi NNE 6.9 mph - 0.03 in Snow Light Snow
6:53 AM 28.0 °F 21.7 °F 27.0 °F 96% 29.93 in 0.5 mi NE 5.8 mph - 0.04 in Fog , Snow Snow
7:19 AM 28.0 °F 21.7 °F 27.0 °F 96% 29.85 in 0.5 mi NNE 5.8 mph - 0.04 in Fog , Snow Snow
7:53 AM 28.0 °F 21.7 °F 27.0 °F 96% 29.90 in 0.8 mi North 5.8 mph - 0.08 in Snow Light Snow
8:00 AM 28.0 °F 20.8 °F 27.0 °F 96% 29.83 in 1.0 mi NE 6.9 mph - 0.00 in Snow Light Snow
8:15 AM 28.0 °F 21.7 °F 27.0 °F 96% 29.82 in 0.8 mi NNE 5.8 mph - 0.00 in Snow Light Snow
8:20 AM 28.0 °F 22.8 °F 27.0 °F 96% 29.83 in 1.0 mi NNE 4.6 mph - 0.01 in Snow Light Snow
8:44 AM 28.0 °F 20.0 °F 27.0 °F 96% 29.82 in 1.0 mi NNE 8.1 mph - 0.01 in Snow Light Snow
8:47 AM 28.4 °F 20.4 °F 26.6 °F 93% 29.82 in 0.8 mi North 8.1 mph - 0.01 in Snow Light Snow
8:53 AM 28.0 °F 20.0 °F 27.0 °F 96% 29.89 in 0.5 mi North 8.1 mph - 0.01 in Fog , Snow Snow
9:14 AM 28.0 °F 21.7 °F 27.0 °F 96% 29.82 in 0.2 mi North 5.8 mph - 0.02 in Fog , Snow Snow
9:53 AM 28.0 °F 20.0 °F 26.1 °F 92% 29.90 in 0.2 mi North 8.1 mph - 0.06 in Fog , Snow Snow
10:04 AM 28.0 °F 21.7 °F 26.1 °F 92% 29.84 in 0.5 mi Variable 5.8 mph - 0.00 in Fog , Snow Light Snow
10:15 AM 28.0 °F 20.8 °F 27.0 °F 96% 29.84 in 0.5 mi North 6.9 mph - 0.01 in Fog , Snow Snow
10:19 AM 28.0 °F 21.7 °F 26.1 °F 92% 29.84 in 0.2 mi North 5.8 mph - 0.01 in Fog , Snow Snow
10:26 AM 28.0 °F 20.8 °F 26.1 °F 92% 29.83 in 0.5 mi North 6.9 mph - 0.01 in Fog , Snow Snow
10:44 AM 28.0 °F 20.0 °F 26.1 °F 92% 29.84 in 0.8 mi North 8.1 mph 17.3 mph 0.02 in Snow Light Snow
10:53 AM 28.0 °F 21.7 °F 27.0 °F 96% 29.90 in 0.8 mi North 5.8 mph - 0.02 in Snow Light Snow
11:08 AM 28.0 °F 20.8 °F 26.1 °F 92% 29.82 in 1.0 mi North 6.9 mph - 0.00 in Snow Light Snow
11:53 AM 28.9 °F 21.9 °F 26.1 °F 89% 29.89 in 1.5 mi Variable 6.9 mph - 0.01 in Snow Light Snow
12:01 PM 28.9 °F 21.1 °F 26.1 °F 89% 29.82 in 1.5 mi North 8.1 mph 17.3 mph 0.00 in Snow Light Snow
12:04 PM 28.9 °F 21.1 °F 26.1 °F 89% 29.82 in 1.2 mi NNW 8.1 mph - 0.00 in Snow Light Snow
12:17 PM 28.9 °F 21.9 °F 26.1 °F 89% 29.83 in 2.0 mi NNW 6.9 mph - 0.00 in Snow Light Snow
12:21 PM 28.9 °F 21.1 °F 26.1 °F 89% 29.83 in 3.0 mi North 8.1 mph - 0.00 in Snow Light Snow
12:35 PM 30.0 °F 21.7 °F 26.1 °F 85% 29.83 in 4.0 mi NNW 9.2 mph - 0.00 in Snow Light Snow
12:53 PM 28.9 °F 21.1 °F 25.0 °F 85% 29.90 in 8.0 mi NW 8.1 mph - 0.00 in   Overcast
1:53 PM 30.0 °F 21.7 °F 25.0 °F 82% 29.91 in 10.0 mi NW 9.2 mph - N/A   Overcast
2:13 PM 30.0 °F 21.1 °F 25.0 °F 82% 29.86 in 10.0 mi NW 10.4 mph - N/A   Overcast
2:42 PM 28.0 °F 20.8 °F 24.1 °F 85% 29.89 in 5.0 mi NW 6.9 mph 18.4 mph 0.00 in Snow Light Snow
2:53 PM 28.0 °F 18.1 °F 24.1 °F 85% 29.96 in 8.0 mi WNW 11.5 mph 19.6 mph 0.00 in   Overcast
3:28 PM 27.0 °F 17.3 °F 23.0 °F 85% 29.91 in 10.0 mi WNW 10.4 mph - N/A   Overcast
3:53 PM 27.0 °F 18.7 °F 21.9 °F 81% 29.98 in 10.0 mi WNW 8.1 mph - N/A   Overcast
4:53 PM 25.0 °F 15.5 °F 21.9 °F 88% 30.01 in 10.0 mi WNW 9.2 mph - N/A   Overcast
5:16 PM 25.0 °F 15.5 °F 21.0 °F 85% 29.94 in 10.0 mi WNW 9.2 mph - N/A   Overcast
5:53 PM 24.1 °F 13.7 °F 19.9 °F 84% 30.02 in 10.0 mi WNW 10.4 mph - N/A   Overcast
6:51 PM 19.4 °F 7.9 °F 15.8 °F 86% 29.97 in 10.0 mi West 10.4 mph - N/A   Scattered Clouds
6:53 PM 19.9 °F 9.3 °F 15.1 °F 81% 30.05 in 10.0 mi West 9.2 mph - N/A   Scattered Clouds
7:20 PM 19.9 °F 7.9 °F 15.1 °F 81% 29.97 in 10.0 mi West 11.5 mph - N/A   Mostly Cloudy
7:53 PM 18.0 °F 4.8 °F 12.9 °F 81% 30.05 in 10.0 mi West 12.7 mph - N/A   Scattered Clouds
8:53 PM 10.9 °F 0.2 °F 9.0 °F 92% 30.07 in 10.0 mi WSW 6.9 mph - N/A   Clear
9:53 PM 10.0 °F 1.8 °F 8.1 °F 92% 30.08 in 10.0 mi WSW 4.6 mph - N/A   Clear
10:53 PM 9.0 °F -0.9 °F 7.0 °F 92% 30.08 in 10.0 mi WSW 5.8 mph - N/A   Scattered Clouds
11:53 PM 6.1 °F -2.8 °F 5.0 °F 95% 30.08 in 10.0 mi SW 4.6 mph - N/A   Partly Cloudy